CW5306 Weather Reports


time (UTC)temp
F
wind
direction
speed
knots
gust
knots
rain 1hr
in
rain 24hr
in
rain mn
in
humidity
%
barometer
mb
20260506142255 66 250 0.0 0.0 0.00 0.00 0.00 91 1015.3
20260506141755 66 256 0.0 0.0 0.00 0.00 0.00 91 1015.0
20260506141256 66 275 0.0 0.0 0.00 0.00 0.00 91 1015.2
20260506140758 66 240 0.0 0.0 0.00 0.00 0.00 91 1015.2
20260506140255 66 250 0.0 0.0 0.00 0.00 0.00 91 1015.3
20260506140027 66 243 0.0 0.0 0.00 0.00 0.00 91 1015.1
20260506135256 66 272 0.0 0.0 0.00 0.00 0.00 91 1015.1
20260506135027 66 229 0.0 0.0 0.00 0.00 0.00 91 1015.3
20260506134256 66 234 0.0 0.0 0.00 0.00 0.00 91 1015.1
20260506133744 66 255 0.0 0.0 0.00 0.00 0.00 91 1015.0
20260506133244 66 277 0.0 0.0 0.00 0.00 0.00 91 1014.9
20260506132744 66 279 0.0 0.0 0.00 0.00 0.00 91 1015.0
20260506132244 66 296 0.0 0.0 0.00 0.00 0.00 91 1015.2
20260506131745 66 267 0.0 0.0 0.00 0.00 0.00 90 1015.0
20260506131243 66 275 0.0 0.0 0.00 0.00 0.00 90 1015.2
20260506130744 66 264 0.0 0.0 0.00 0.00 0.00 90 1015.2
20260506130515 66 250 0.0 0.0 0.00 0.00 0.00 90 1015.1
20260506130014 66 246 0.0 0.0 0.00 0.00 0.00 91 1015.3
20260506125245 66 242 0.0 0.0 0.00 0.00 0.00 90 1015.2
20260506124743 66 241 0.0 0.0 0.00 0.00 0.00 90 1015.1
20260506124514 66 243 0.0 0.0 0.00 0.00 0.00 90 1015.4
20260506123732 66 243 0.0 0.0 0.00 0.00 0.00 90 1015.4
20260506123232 66 243 0.0 0.0 0.00 0.00 0.00 90 1015.6
20260506122951 66 244 0.0 0.0 0.00 0.00 0.00 90 1015.5
20260506122220 66 243 0.0 0.0 0.00 0.00 0.00 91 1015.4
20260506121721 66 234 0.0 0.0 0.00 0.00 0.00 90 1015.6
20260506121208 66 229 0.0 0.0 0.00 0.00 0.00 90 1015.5
20260506120708 66 229 0.0 0.0 0.00 0.00 0.00 90 1015.9
20260506120208 66 229 0.0 0.0 0.00 0.00 0.00 90 1015.8
20260506115655 67 229 0.0 0.0 0.00 0.00 0.00 90 1016.0
20260506115155 67 229 0.0 0.0 0.00 0.00 0.00 90 1016.1
20260506114656 67 229 0.0 0.0 0.00 0.00 0.00 90 1016.1
20260506114418 67 229 0.0 0.0 0.00 0.00 0.00 90 1016.2
20260506114250 67 229 0.0 0.0 0.00 0.00 0.00 90 1016.1
20260506113143 67 229 0.0 0.0 0.00 0.00 0.00 90 1016.3
20260506112645 67 229 0.0 0.0 0.00 0.00 0.00 90 1016.3
20260506112131 67 229 0.0 0.0 0.00 0.00 0.00 90 1016.5
20260506111633 67 229 0.0 0.0 0.00 0.00 0.00 90 1016.3
20260506111107 67 229 0.0 0.0 0.00 0.00 0.00 90 1016.3
20260506110608 67 229 0.0 0.0 0.00 0.00 0.00 90 1016.4
20260506110058 67 228 0.0 0.0 0.00 0.00 0.00 90 1016.4
20260506105555 67 229 0.0 0.0 0.00 0.00 0.00 90 1016.6
20260506105055 67 229 0.0 0.0 0.00 0.00 0.00 90 1016.6
20260506104802 67 229 0.0 0.0 0.00 0.00 0.00 90 1016.9
20260506104302 67 229 0.0 0.0 0.00 0.00 0.00 90 1016.6
20260506103532 67 229 0.0 0.0 0.00 0.00 0.00 90 1016.8
20260506103032 67 229 0.0 0.0 0.00 0.00 0.00 90 1016.7
20260506102534 67 229 0.0 0.0 0.00 0.00 0.00 90 1017.0
20260506102032 67 229 0.0 0.0 0.00 0.00 0.00 89 1017.0
20260506101520 67 229 0.0 0.0 0.00 0.00 0.00 89 1016.9
20260506101250 67 229 0.0 0.0 0.00 0.00 0.00 89 1016.9
20260506100519 67 225 0.0 0.0 0.00 0.00 0.00 89 1017.0
20260506100008 67 225 0.0 0.0 0.00 0.00 0.00 89 1016.9
20260506095508 67 225 0.0 0.0 0.00 0.00 0.00 89 1017.0
20260506095008 67 225 0.0 0.0 0.00 0.00 0.00 89 1016.9
20260506094507 68 225 0.0 0.0 0.00 0.00 0.00 89 1017.0
20260506094007 68 225 0.0 0.0 0.00 0.00 0.00 89 1016.9
20260506093507 68 225 0.0 0.0 0.00 0.00 0.00 89 1017.0
20260506093239 68 225 0.0 0.0 0.00 0.00 0.00 89 1017.0
20260506092508 68 225 0.0 0.0 0.00 0.00 0.00 89 1017.1
20260506092008 68 225 0.0 0.0 0.00 0.00 0.00 89 1017.1
20260506091739 68 225 0.0 0.0 0.00 0.00 0.00 89 1017.3
20260506091240 68 225 0.0 0.0 0.00 0.00 0.00 89 1017.3
20260506090507 68 225 0.0 0.0 0.00 0.00 0.00 89 1017.4
20260506090238 68 225 0.0 0.0 0.00 0.00 0.00 89 1017.1
20260506085507 68 225 0.0 0.0 0.00 0.00 0.00 89 1017.3
20260506085007 68 225 0.0 0.0 0.00 0.00 0.00 89 1017.0
20260506084507 68 225 0.0 0.0 0.00 0.00 0.00 89 1016.7
20260506084239 68 225 0.0 0.0 0.00 0.00 0.00 89 1017.0
20260506083508 68 225 0.0 0.0 0.00 0.00 0.00 89 1017.1
20260506083008 68 225 0.0 0.0 0.00 0.00 0.00 89 1017.0
20260506082508 68 225 0.0 0.9 0.00 0.00 0.00 89 1017.0
20260506082007 68 225 0.0 0.9 0.00 0.00 0.00 89 1017.2
20260506081508 69 225 0.0 0.0 0.00 0.00 0.00 88 1017.2
20260506081007 69 225 0.0 0.0 0.00 0.00 0.00 88 1016.9
20260506080507 69 225 0.0 0.0 0.00 0.00 0.00 88 1016.9
20260506073455 69 224 0.0 0.0 0.00 0.00 0.00 88 1016.6
20260506073227 69 224 0.0 0.0 0.00 0.00 0.00 88 1016.6
20260506072457 69 224 0.0 0.0 0.00 0.00 0.00 88 1016.5
20260506071956 69 224 0.0 0.0 0.00 0.00 0.00 88 1016.8
20260506071726 69 224 0.0 0.0 0.00 0.00 0.00 88 1016.6
20260506070956 70 224 0.0 0.0 0.00 0.00 0.00 88 1016.8
20260506070456 70 224 0.0 0.0 0.00 0.00 0.00 88 1016.4
20260506062456 71 224 0.0 0.0 0.00 0.00 0.00 87 1015.9
20260506061955 71 223 0.0 0.0 0.00 0.00 0.00 87 1015.8
20260506061456 71 217 0.0 0.0 0.00 0.00 0.00 87 1015.8
20260506061228 72 218 0.0 0.0 0.00 0.00 0.00 87 1015.9
20260506060456 72 218 0.0 0.0 0.00 0.00 0.00 87 1015.8
20260506050956 74 196 0.0 0.0 0.00 0.00 0.00 83 1015.1
20260506050727 74 197 0.0 0.0 0.00 0.00 0.00 83 1015.2
20260506044955 75 159 0.0 0.0 0.00 0.00 0.00 82 1015.2
20260506044455 75 185 0.0 0.0 0.00 0.00 0.00 82 1015.1
20260506043956 75 152 0.0 0.9 0.00 0.00 0.00 82 1015.2
20260506043727 75 156 0.0 1.7 0.00 0.00 0.00 81 1015.1
20260506042956 75 146 0.0 4.3 0.00 0.00 0.00 80 1014.8
20260506042456 75 150 0.0 4.3 0.00 0.00 0.00 80 1014.8
20260506041957 76 150 0.0 5.2 0.00 0.00 0.00 80 1014.7
20260506041727 76 124 0.0 3.5 0.00 0.00 0.00 79 1014.6
20260506040956 76 124 0.0 5.2 0.00 0.00 0.00 79 1014.7
20260506040729 76 144 0.0 7.0 0.00 0.00 0.00 79 1014.5
20260506035956 76 137 0.0 7.0 0.00 0.00 0.00 79 1014.6
20260506035726 77 145 4.3 7.0 0.00 0.00 0.00 79 1014.6
20260506035226 77 155 0.0 0.0 0.00 0.00 0.00 78 1014.6
20260506034455 77 193 0.0 0.0 0.00 0.00 0.00 78 1014.5
20260506033957 77 101 0.0 3.5 0.00 0.00 0.00 78 1014.5
20260506033455 77 108 0.0 4.3 0.00 0.00 0.00 77 1014.3
20260506032957 77 110 0.0 5.2 0.00 0.00 0.00 77 1014.4
20260506032455 78 120 2.6 5.2 0.00 0.00 0.00 77 1014.5
20260506031956 78 114 2.6 4.3 0.00 0.00 0.00 77 1014.3
20260506031456 77 104 0.0 7.0 0.00 0.00 0.00 77 1014.3
20260506030956 77 123 0.0 7.0 0.00 0.00 0.00 77 1014.4
20260506030457 77 117 0.9 5.2 0.00 0.00 0.00 78 1014.5
20260506030226 76 107 3.5 7.0 0.00 0.00 0.00 79 1014.4
20260506025455 76 134 0.0 7.0 0.00 0.00 0.00 78 1014.4
20260506024957 77 99 0.0 7.0 0.00 0.00 0.00 77 1014.6
20260506024455 78 123 2.6 7.0 0.00 0.00 0.00 78 1014.6
20260506023956 78 120 5.2 7.0 0.00 0.00 0.00 75 1014.6
20260506023726 77 110 0.0 5.2 0.00 0.00 0.00 76 1014.6
20260506022956 77 141 0.0 7.0 0.00 0.00 0.00 77 1014.7
20260506022456 78 101 0.0 7.0 0.00 0.00 0.00 76 1014.7
20260506022005 77 105 0.0 7.0 0.00 0.00 0.00 76 1014.6
20260506021956 78 154 3.5 7.0 0.00 0.00 0.00 77 1014.7
20260506021228 77 135 4.3 7.0 0.00 0.00 0.00 76 1014.6
20260506020455 78 138 1.7 7.0 0.00 0.00 0.00 76 1014.9
20260506015956 77 176 3.5 7.0 0.00 0.00 0.00 78 1014.7
20260506015727 76 148 0.0 5.2 0.00 0.00 0.00 80 1015.1
20260506014957 76 110 0.0 7.0 0.00 0.00 0.00 78 1014.9
20260506014455 76 170 1.7 7.0 0.00 0.00 0.00 80 1015.2
20260506013956 76 163 4.3 8.7 0.00 0.00 0.00 81 1015.2
20260506013728 76 136 4.3 8.7 0.00 0.00 0.00 81 1014.9
20260506013604 76 134 4.3 7.8 0.00 0.00 0.00 81 1015.0
20260506012726 76 111 5.2 7.8 0.00 0.00 0.00 81 1015.1
20260506012227 77 112 0.0 5.2 0.00 0.00 0.00 82 1015.0
20260506011456 76 161 0.9 5.2 0.00 0.00 0.00 80 1015.0
20260506010945 76 131 0.0 4.3 0.00 0.00 0.00 81 1014.9
20260506010433 76 149 0.0 7.0 0.00 0.00 0.00 81 1015.0
20260506005931 76 149 2.6 7.0 0.00 0.00 0.00 82 1015.2
20260506005651 76 204 0.0 7.0 0.00 0.00 0.00 81 1015.1
20260506004907 75 166 1.7 7.0 0.00 0.00 0.00 82 1015.1
20260506004357 75 111 0.0 7.0 0.00 0.00 0.00 83 1015.3
20260506003853 76 144 0.0 7.0 0.00 0.00 0.00 84 1015.2
20260506003346 76 133 1.7 7.0 0.00 0.00 0.00 85 1015.5
20260506002847 75 135 0.0 7.8 0.00 0.00 0.00 85 1015.6
20260506002347 75 147 3.5 7.0 0.00 0.00 0.00 85 1015.8
20260506001847 75 146 0.0 5.2 0.00 0.00 0.00 87 1015.6
20260506001347 74 171 0.0 4.3 0.00 0.00 0.00 86 1015.5
20260506000847 74 164 0.0 5.2 0.00 0.00 0.00 88 1015.7
20260506000346 74 129 2.6 7.8 0.00 0.00 0.00 88 1015.8
20260505235849 74 159 4.3 7.8 0.00 0.00 0.00 88 1015.9
20260505235618 74 215 0.9 7.8 0.00 0.00 0.00 89 1016.1
20260505235107 74 176 3.5 7.0 0.00 0.00 0.00 91 1015.9
20260505234323 74 158 0.0 7.0 0.00 0.00 0.00 92 1015.9
20260505234053 74 164 2.6 7.8 0.00 0.00 0.00 92 1016.1
20260505233322 73 189 2.6 7.8 0.00 0.00 0.00 91 1016.0
20260505232823 73 137 0.0 5.2 0.00 0.00 0.00 91 1015.9
20260505232323 73 145 3.5 7.8 0.00 0.00 0.00 91 1016.2
20260505232055 73 142 0.0 7.8 0.00 0.00 0.00 91 1016.4
20260505231813 73 139 1.7 8.7 0.00 0.00 0.00 90 1016.5
20260505230811 73 194 3.5 8.7 0.00 0.00 0.00 90 1016.5
20260505230310 73 153 6.1 8.7 0.00 0.00 0.00 90 1016.6
20260505225810 74 235 4.3 8.7 0.00 0.00 0.00 89 1016.6
20260505225311 74 187 1.7 7.8 0.00 0.00 0.00 88 1016.6
20260505224810 74 130 2.6 7.8 0.00 0.00 0.00 88 1016.6
20260505224310 75 112 4.3 7.0 0.00 0.00 0.00 87 1016.8
20260505223810 75 137 3.5 5.2 0.00 0.00 0.00 86 1016.7
20260505223311 75 143 0.0 5.2 0.00 0.00 0.00 86 1016.9
20260505222811 75 100 0.0 5.2 0.00 0.00 0.00 86 1016.8
20260505222310 75 165 2.6 5.2 0.00 0.00 0.00 88 1017.0
20260505222042 75 159 0.9 7.8 0.00 0.00 0.00 89 1016.9
20260505221311 76 152 0.0 8.7 0.00 0.00 0.00 90 1017.0
20260505220811 76 119 0.0 8.7 0.00 0.00 0.00 88 1017.0
20260505220310 76 133 0.0 7.8 0.00 0.00 0.00 88 1016.9
20260505215809 76 124 3.5 7.0 0.00 0.00 0.00 88 1017.1
20260505215310 77 192 0.0 7.0 0.00 0.00 0.00 88 1017.1
20260505214810 77 156 3.5 7.0 0.00 0.00 0.00 87 1017.1
20260505214309 77 0.0 0.0 0.00 0.00 0.00 86
20260505213049 78 85 0.0 7.0 0.00 0.00 0.00 83 1017.1
20260505213045 78 78 0.0 0.0 0.00 0.00 0.00 82 1017.3
20260505212132 78 78 0.0 0.0 0.00 0.00 0.00 82 1017.3
20260505211648 78 113 7.0 7.8 0.00 0.00 0.00 85 1017.5
20260505192150 74 130 0.0 7.8 0.00 0.00 0.00 88 1017.6
20260505191652 74 154 0.9 7.0 0.00 0.00 0.00 89 1017.8
20260505191151 74 127 3.5 8.7 0.00 0.00 0.00 89 1017.4
20260505190651 74 139 3.5 9.6 0.00 0.00 0.00 90 1017.6
20260505190153 74 152 4.3 9.6 0.00 0.00 0.00 91 1017.6
20260505185651 74 153 2.6 5.2 0.00 0.00 0.00 92 1017.8
20260505185158 74 147 0.0 0.0 0.00 0.00 0.00 93 1017.6
20260505185152 74 156 0.0 0.0 0.00 0.00 0.00 92 1017.7
20260505182556 73 58 0.0 0.0 0.00 0.00 0.00 93 1017.3
20260505182526 73 43 0.0 0.0 0.00 0.00 0.00 93 1017.1
20260505181101 72 49 0.0 0.0 0.00 0.00 0.00 93 1017.1
20260505180832 72 50 0.0 0.0 0.00 0.00 0.00 93 1017.1
20260505180332 72 75 0.0 0.0 0.00 0.00 0.00 93 1016.9
20260505175600 72 139 0.0 0.0 0.00 0.00 0.00 93 1017.1
20260505175101 72 153 0.0 0.0 0.00 0.00 0.00 94 1017.0
20260505174600 72 228 0.0 0.0 0.00 0.00 0.00 93 1017.1
20260505174100 72 229 0.0 0.0 0.00 0.00 0.00 93 1016.9
20260505173831 71 229 0.0 0.0 0.00 0.00 0.00 93 1017.0
20260505173108 71 228 0.0 0.0 0.00 0.00 0.00 93 1016.6
20260505173102 71 228 0.0 0.0 0.00 0.00 0.00 93 1016.9
20260505172100 71 228 0.0 0.0 0.00 0.00 0.00 93 1016.5
20260505171600 71 228 0.0 0.0 0.00 0.00 0.00 93 1016.7